THOR ABLESTAR DEB, 475

Orbit data source: Space-Track

THOR ABLESTAR DEB, 475 is space debris in LEO originally from a launch on Thu, 29 Jun 1961 UTC launched from the Air Force Eastern Test Range (AFETR). Debris objects in space refer to the collection of defunct objects orbiting the Earth. Examples of debris include non-operational satellites, rocket bodies, and fragments generated from explosions, collisions, or faulty payload assembly.

Loading next visibility...
Identifier
475, 1961-015FM
Orbit
LEO
Last TLE update
14 hours ago
Origin
Manufacturer
Unknown
Mission
Spacecraft
Bus & Motor
Unknown
Mass
Unknown
Launch date (UTC)
1961-06-29 (64 years ago)
Launch vehicle
Unknown
Launch site
Air Force Eastern Test Range (AFETR)
Object type
Payload
Rocket body
Debris
Shape & HBR
Unknown
Radar Cross Section
Small (<0.1 m²)

Expand to show TLE details & history

TLE from 14 hours ago
0 THOR ABLESTAR DEB
1 00475U 61015FM  25191.45699127  .00001935  00000-0  82362-3 0  9992
2 00475  66.2196 198.4493 0149676 312.6037  46.2506 14.21518277239174
Epoch: 2025-07-10T10:58Z
TLE epoch observation values (Epoch: 2025-07-10T10:58:04.045Z)
Latitude
-0.00002°
Longitude
105.30943°
Altitude
748.627 km
Speed
7.519 km/s
True Right ascension
13h 13m 47s
True Declination
0° 00' 00"
Sunlit
Object was in daylight at epoch
Visualization orbit readout
Latitude
6.38827°
Longitude
106.63844°
Altitude
758.486 km
Speed
7.509 km/s
Apparent Right ascension
14h 27m 31s
Apparent Declination
-54° 25' 59"
Sunlit
Object is in daylight
Visualization observer readout
Local Sidereal Time
12:46:43
Azimuth
165.558° S
Elevation
-6.793°
Doppler factor
1
Orbital elements
Apogee altitude
926.379 km
Perigee altitude
710.941 km
Semi-major axis
7,196.797 km
Eccentricity
0.01497
Inclination
66.2196°
RAAN
198.4493°
Arg. of periapsis
312.6037°
True anomaly
Unknown
Mean anomaly
46.2506°
Eccentric anomaly
Unknown
Mean motion
3.55496 °/min
Orbital period
101.27 mins
BSTAR
0.00082362
Loading maneuver chart data...
Loading SW <> Apogee altitude chart data...

THOR ABLESTAR DEB Visibility forecast

Observer location: undefined°, undefined°

Span
Click to sort rows by Start time (UTC) header in descending order
Start Az.
Max El. time (UTC)
Max El. Az.
Max El.
End time (UTC)
End Az.
9 mins2025-07-11 02:18:28.803Z213.061° SW2025-07-11 02:22:28.803Z318.84° NNW44.696°2025-07-11 02:27:28.803Z27.914° NE
5 mins2025-07-11 04:05:28.803Z296.602° NW2025-07-11 04:07:28.803Z320.34° NNW15.353°2025-07-11 04:10:28.803Z353.602° N
6 mins2025-07-11 09:27:28.803Z14.923° NNE2025-07-11 09:29:28.803Z37.886° NE17.191°2025-07-11 09:33:28.803Z80.385° E
10 mins2025-07-11 11:10:28.803Z332.209° NNW2025-07-11 11:14:28.803Z0.786° NNE44.554°2025-07-11 11:20:28.803Z149.383° SSE
4 mins2025-07-11 12:56:28.803Z275.543° WNW2025-07-11 12:58:28.803Z254.006° W14.349°2025-07-11 13:00:28.803Z233.093° WSW
|